Home   Weather   Herzliya   Past weeks

Flag for Israel Past Weather in Herzliya, Israel — Yesterday and Last 2 Weeks

Now
57 °F

Clear.


Feels Like: 56 °F
Forecast: 48 / 64 °F
Wind: 7 mph from Northeast

Location: Dov Airport

Current Time: Jan 22, 2017 at 8:38:37 pm

Latest Report: Jan 22, 2017 at 7:50 pm


Visibility: 10 mi

Pressure: 30.24 "Hg

Humidity: 51%

Dew Point: 39 °F

Location of HerzliyaLocation

Past Weather in Herzliya — Graph

°F

Herzliya Temperature Yesterday

Maximum temperature yesterday: 64 °F (at 12:50 pm)
Minimum temperature yesterday: 54 °F (at 6:00 am)
Average temperature yesterday: 60 °F

High & Low Weather Summary for the Past Weeks

 TemperatureHumidityPressure
High66 °F (Jan 10, 12:50 pm)94% (Jan 15, 5:30 am)30.24 "Hg (Jan 15, 5:30 am)
Low46 °F (Jan 10, 6:50 am)28% (Jan 10, 12:50 pm)29.89 "Hg (Jan 14, 11:50 pm)
Average58 °F63%30.08 "Hg
* Reported Jan 7 6:50 pm — Jan 22 6:50 pm, Herzliya, Weather by CustomWeather, © 2017

Note: Actual official high and low records may vary slightly from our data, if they occured in-between our weather recording intervals... More about our weather records

Advertising

Herzliya Weather History for the Previous 24 Hours

Scroll right to see more
 ConditionsComfort  
Time TempWeatherWind HumidityBarometerVisibility
6:50 pm
Sun, Jan 22
57 °FClear.7 mph51%30.21 "Hg10 mi
5:50 pm57 °FPassing clouds.7 mph55%30.21 "HgN/A
4:50 pm59 °FPassing clouds.12 mph55%30.18 "HgN/A
3:50 pm61 °FPassing clouds.13 mph48%30.18 "HgN/A
2:50 pm63 °FPassing clouds.13 mph45%30.18 "HgN/A
1:50 pm63 °FPassing clouds.12 mph45%30.18 "HgN/A
12:50 pm63 °FPassing clouds.8 mph37%30.18 "HgN/A
11:50 am63 °FPassing clouds.6 mph37%30.21 "HgN/A
10:50 am63 °FPassing clouds.6 mph37%30.24 "HgN/A
9:50 am61 °FPassing clouds.6 mph45%30.24 "HgN/A
8:50 am57 °FScattered clouds.6 mph63%30.21 "HgN/A
7:50 am54 °FScattered clouds.5 mph72%30.21 "HgN/A
6:50 am50 °FPassing clouds.7 mph82%30.18 "HgN/A
5:50 am50 °FClear.7 mph82%30.18 "Hg10 mi
5:30 am50 °FClear.7 mph82%30.18 "Hg10 mi
10:50 pm
Sat, Jan 21
55 °FPassing clouds.5 mph72%30.15 "HgN/A
9:50 pm61 °FPassing clouds.7 mph55%30.15 "HgN/A
8:50 pm61 °FPassing clouds.7 mph59%30.12 "HgN/A
Weather by CustomWeather, © 2017

See weather overviewHow to use our weather pages